Location: Unspecified
(50.7693°N, 0.0000°E)
Time: 22:10:19
(UTC+00:00)

Vanguard 1 Rocket - Pass Details

Date: 22 June 2019
Orbit: 651 x 4225 km, 34.3° (Epoch: 14 July)

Event Time Altitude Azimuth Distance (km) Brightness Sun altitude
Rises 15:01:52 0° 203° (SSW) 8,138 12.7 45.9°
Reaches altitude 10° 15:10:22 10° 190° (S) 6,604 12.2 44.7°
Maximum altitude 15:22:05 19° 154° (SSE) 4,808 11.2 42.9°
Drops below altitude 10° 15:30:30 10° 115° (ESE) 4,593 10.7 41.6°
Sets 15:34:44 0° 98° (E) 5,049 10.8 41.0°
